Voltar ao catálogo

STARLINK-30929

AtivoComunicaçõesVLEO
NORAD 58386·PAYLOAD·🇺🇸 United States

Lançado Nov 20, 2023 de Vandenberg Space Force Base

Loading…

Próximas Passagens (próximas 24 horas)

TLE

AtualizadoSource: CelesTrak SupGP

Época: Sep 14, 2026, 20:55 UTC

1 58386C 23178N   26257.87201389  .00023736  00000+0  70098-3 0  2575
2 58386  53.1593 198.3747 0001516  96.2109 100.6195 15.34392167    11

Acompanhe STARLINK-30929 em tempo real com AllMySat

Download on the App Store